www.pogodaiklimat.ru

Погода и климат >> Архив погоды >> Норвегия >> Бардуфосс


ПОГОДА в Бардуфоссе

  • Прогноз погоды в Бардуфоссе
  • Монитор погоды в Бардуфоссе

АРХИВ ПОГОДЫ в Бардуфоссе

Время (UTC), дата Ветер
(напр.,м/с)
 
Видим.   Явления Облачность Т
(С)
Тd
(С)
f
(%)
Тe
(С)
Тes
(С)
Комфортность P
(гПа)
Po
(гПа)
Тmin
(С)
Tmax
(С)
R
(мм)
R24
(мм)
S
(см)
10 18.06 З 4
{5}
>70 км 9/5 600 м
[Cu Sc Ac trans Ci fib]
+14.0 +7.2 64 +13 +13 1008.1 998.9
11 18.06 З 4
{6}
>70 км 9/8 600 м
[Cu Sc Ac trans Ci fib]
+13.6 +8.0 69 +12 +14 1007.9 998.8
12 18.06
{6}
>70 км 9/8 600 м
[Cu Sc Ac trans]
+14.8 +7.7 62 1007.8 998.7
13 18.06 З 5
{7}
>70 км 9/8 600 м
[Cu Sc Ac trans]
+13.9 +7.4 65 +12 +13 1007.6 998.5
14 18.06 З 5
{7}
30 км осадки на расстоянии 10/8 600 м
[Sc Ac As]
+12.1 +8.4 78 +10 +10 1007.8 998.6
15 18.06 З 3
{6}
28 км слаб. дождь 10/8 600 м
[Sc Ac As]
+10.7 +8.8 88 +9 +9 1008.2 998.9 2
16 18.06 З 3
{4}
28 км слаб. дождь 10/8 600 м
[Sc Ac As]
+10.7 +9.0 89 +9 +9 1008.3 999.0 1
17 18.06 З 3
{4}
30 км слаб. ливневой дождь 10/8 200 м
[Cu Sc Ac As]
+10.7 +9.0 89 +9 +9 1008.4 999.1 0.9
18 18.06 З 2
{7}
30 км слаб. ливневой дождь 10/8 300 м
[Cu Sc Ac As]
+10.3 +8.4 88 +9 +9 1008.4 999.2 +10.1 +15.1 0.5
19 18.06 З 2
{4}
25 км слаб. ливневой дождь 10/8 200 м
[Cu Sc Ac As]
+9.8 +8.5 92 +8 +8 1008.6 999.3 0.5
20 18.06 З 2
{3}
28 км слаб. ливневой дождь 10/8 <50 м
[Cu Sc Ac As]
+9.4 +8.2 92 +8 +8 1008.7 999.4 0.2
21 18.06 З 2
{3}
25 км слаб. ливневой дождь 10/8 <50 м
[Cu Sc Ac As]
+9.2 +8.2 93 +7 +7 1008.7 999.4 0.2
22 18.06 З 1
{2}
н/о н/о +9.0 +8.1 94 +8 +8 1008.5 999.2 0.3
23 18.06 ЮЗ 1
{3}
н/о н/о +8.8 +8.0 95 +8 +8 1008.4 999.1 0.1
00 19.06 ЮЗ 1
{4}
н/о н/о +8.4 +7.7 95 +8 +8 1008.3 999.0
01 19.06 штиль 0
{2}
н/о н/о +8.4 +7.9 97 +7 +7 1008.2 998.9
02 19.06 ЮЗ 1
{1}
н/о н/о +8.6 +8.0 96 +8 +8 1008.2 998.9
03 19.06 штиль 0
{1}
н/о н/о +8.8 +8.1 95 +8 +8 1008.3 999.0
04 19.06 штиль 0
{1}
40 км 9/9 <50 м
[St Ac As]
+9.0 +8.3 95 +8 +8 1008.2 998.9
05 19.06 В 1
{2}
40 км туман на расстоянии 10/9 <50 м
[Frnb Ac As]
+9.1 +8.2 94 +8 +8 1008.3 999.0
06 19.06 ЮВ 1
{2}
30 км туман на расстоянии {дождь} 10/9 <50 м
[Frnb Ac As]
+9.7 +7.6 87 +9 +9 1008.3 999.0 +8.3 +10.4
07 19.06 Ю 1
{2}
50 км осадки на расстоянии 10/9 100 м
[Sc Ac As]
+10.2 +8.0 86 +10 +10 1008.5 999.3
08 19.06 Ю 2
{3}
45 км осадки на расстоянии 10/9 200 м
[Sc Ac As]
+10.3 +7.8 84 +9 +9 1008.8 999.5
09 19.06 Ю 2
{3}
45 км осадки на расстоянии 9/9 200 м
[Cu Sc Ac As]
+10.9 +8.1 83 +10 +11 1008.9 999.7
10 19.06 ЮЗ 2
{3}
60 км осадки на расстоянии 9/9 300 м
[Cu Sc Ac As]
+12.1 +8.3 78 +11 +12 1009.2 1000.0
11 19.06 З 1
{3}
50 км в посл. час ливневой дождь 9/8 300 м
[Cu Sc Ac As]
+12.5 +7.3 71 +13 +14 1009.4 1000.2
12 19.06 С 2
{3}
50 км осадки на расстоянии {ливн. осадки} 9/8 300 м
[Cu Sc Ac As]
+12.7 +8.4 75 +12 +13 1009.7 1000.5
13 19.06 З 4
{5}
55 км в посл. час ливневой дождь 9/8 300 м
[Cu med, cong Ac As Ci fib]
+13.0 +7.5 69 +11 +12 1010.1 1000.9
14 19.06 З 3
{7}
70 км осадки на расстоянии 9/8 600 м
[Cu med, cong Ac As]
+12.5 +7.2 70 +11 +12 1010.4 1001.1
15 19.06 С 3
{6}
70 км осадки на расстоянии {ливн. осадки} 9/8 600 м
[Cu Sc Ac As]
+12.6 +8.0 74 +11 +11 1010.5 1001.3
16 19.06 С 4
{6}
60 км осадки на расстоянии 9/8 600 м
[Cu Sc Ac As]
+11.6 +8.2 80 +9 +10 1010.9 1001.7
17 19.06 СВ 2
{4}
65 км в посл. час ливневой дождь 9/8 600 м
[Cu Sc Ac As]
+11.2 +7.9 80 +10 +10 1011.3 1002.1
18 19.06 З 4
{7}
26 км слаб. ливневой дождь 10/9 100 м
[Cu Sc Ac As]
+10.0 +8.4 90 +7 +7 1011.7 1002.4 +9.8 +13.6 0.6
19 19.06 З 3
{6}
55 км в посл. час ливневой дождь 9/8 100 м
[Cu Sc Ac As]
+9.3 +8.0 92 +7 +7 1012.3 1002.9 0.4
20 19.06 З 3
{5}
65 км осадки на расстоянии 9/8 100 м
[Cu Sc Ac As]
+9.0 +7.5 90 +6 +6 1012.7 1003.3
21 19.06 З 1
{4}
>70 км {ливн. осадки} 9/8 50 м
[Cu Sc Ac As]
+9.3 +7.9 91 +9 +9 1012.9 1003.6
22 19.06 З 2
{3}
н/о н/о +8.9 +7.5 91 +7 +7 1013.1 1003.8
23 19.06 ЮЗ 1
{1}
н/о н/о +8.5 +7.9 96 +8 +8 1013.2 1003.8
00 20.06 Ю 1
{6}
н/о н/о +8.0 +7.5 97 +7 +7 1013.3 1003.9
01 20.06 штиль 0
{1}
н/о н/о +7.9 +7.4 97 +7 +7 1013.4 1004.1
02 20.06 С 1
{2}
н/о н/о +7.9 +7.5 97 +7 +7 1013.7 1004.3
03 20.06 СВ 1
{2}
н/о н/о +8.5 +7.9 96 +8 +8 1013.6 1004.2
04 20.06 штиль 0
{1}
50 км туман на расстоянии 8/6 50 м
[Sc Ac trans Ci fib]
+11.0 +8.7 86 +10 +11 1013.4 1004.1
05 20.06 В 1
{3}
50 км туман на расстоянии 9/6 50 м
[Sc Ac trans Ci fib]
+10.4 +7.9 84 +10 +11 1013.1 1003.8
06 20.06 В 2
{3}
65 км 9/6 300 м
[Cu med, cong Ac trans Ci fib]
+11.7 +7.9 77 +11 +12 1012.8 1003.6 +7.2 +11.7
07 20.06 ЮВ 1
{3}
65 км 9/8 600 м
[Cu med, cong Ac trans Ci fib]
+13.1 +8.3 73 +13 +15 1012.6 1003.4
08 20.06 В 2
{4}
70 км 9/8 600 м
[Cu med, cong Ac trans Ci fib]
+14.5 +7.3 62 +14 +16 1012.4 1003.2
09 20.06 В 2
{4}
>70 км 9/8 600 м
[Cu med, cong Ac trans Ci fib]
+14.8 +7.7 62 +15 +16 1012.2 1003.0
10 20.06 С 2
{6}
>70 км 9/8 600 м
[Cu med, cong Ac trans Ci fib]
+15.1 +6.3 56 +15 +17 1011.8 1002.7
11 20.06 С 2
{4}
>70 км 9/8 600 м
[Cu Sc Ac trans Ci fib]
+16.4 +6.5 52 +17 +18 1011.4 1002.3
12 20.06 С 3
{6}
>70 км 8/5 1000 м
[Cu Sc Ac trans Ci fib]
+17.4 +6.0 47 +17 +17 1010.9 1001.8
13 20.06 С 3
{6}
>70 км 6/4 1000 м
[Cu Sc Ac trans Ci fib]
+18.7 +6.2 44 +19 +23 1010.2 1001.2
14 20.06 ЮЗ 2
{6}
>70 км 8/3 600 м
[Cu Sc Ac trans Cs]
+19.2 +6.0 42 +20 +24 1009.6 1000.7
15 20.06 С 4
{6}
>70 км 6/3 1000 м
[Cu Sc Ac trans Cs]
+18.9 +5.5 41 +19 +21 1009.0 1000.0
16 20.06 СВ 3
{6}
>70 км 6/3 1500 м
[Cu Sc Ac trans Cs]
+18.7 +6.0 43 +19 +21 1008.7 999.7
17 20.06 С 3
{6}
>70 км 9/4 1500 м
[Cu Sc Ac As Cs]
+17.5 +6.4 48 +18 +18 1008.2 999.2
18 20.06 С 5
{7}
>70 км 9/4 1500 м
[Cu Sc Ac As Cs]
+16.0 +6.3 53 +15 +15 1008.1 999.0 +11.7 +19.8
19 20.06 С 5
{7}
>70 км 9/5 1500 м
[Cu Sc Ac As]
+15.0 +6.2 56 +14 +14 1007.9 998.8
20 20.06 С 5
{7}
>70 км 9/4 1500 м
[Cu Sc Ac As]
+14.0 +6.1 59 +12 +12 1007.9 998.8
21 20.06 С 1
{6}
>70 км 9/4 1500 м
[Sc Ac As]
+13.3 +7.1 66 +14 +14 1007.8 998.6
22 20.06 С 2
{5}
н/о н/о +13.0 +7.0 67 +12 +12 1007.5 998.3
23 20.06 СВ 2
{3}
н/о н/о +13.7 +7.8 68 +13 +13 1007.2 998.0
00 21.06 В 6
{8}
н/о н/о +14.2 +7.8 65 +12 +12 1006.8 997.7
01 21.06 В 3
{8}
н/о н/о +13.9 +7.6 66 +13 +13 1006.4 997.3
02 21.06 В 5
{8}
н/о н/о +13.6 +7.7 67 +12 +12 1006.1 996.9
03 21.06 В 7
{11}
н/о н/о +14.5 +7.3 62 +13 +13 1005.4 996.3
04 21.06 В 7
{10}
>70 км 9/8 1000 м
[Sc Ac As]
+14.7 +7.1 60 +13 +13 1005.1 996.0
05 21.06 В 8
{13}
>70 км 9/8 600 м
[Sc Ac lent]
+14.5 +7.3 62 +12 +12 1004.7 995.7
06 21.06 В 7
{13}
>70 км 9/6 600 м
[Sc Ac lent Cs]
+14.2 +7.7 65 +12 +13 1004.3 995.2 +12.3 +16.0
07 21.06 В 8
{12}
>70 км 9/6 600 м
[Sc Ac lent Cs]
+14.4 +7.9 65 +12 +12 1003.9 994.8
08 21.06 В 8
{11}
>70 км 9/6 600 м
[Sc Ac lent Cs]
+14.9 +7.9 63 +13 +13 1003.6 994.5
09 21.06 В 4
{11}
70 км осадки на расстоянии 9/5 600 м
[Sc Ac lent Cs]
+15.6 +8.5 63 +15 +17 1003.5 994.5
10 21.06 В 4
{9}
70 км осадки на расстоянии 9/5 600 м
[Sc Ac lent Cs]
+15.5 +9.1 66 +15 +17 1003.6 994.6
11 21.06 В 7
{11}
55 км в посл. час дождь 9/8 600 м
[Sc Ac As]
+14.8 +9.7 71 +13 +13 1003.6 994.6
12 21.06 В 3
{12}
55 км слаб. дождь 10/8 600 м
[Sc Ac As]
+14.2 +9.9 75 +13 +14 1003.9 994.8
13 21.06 ЮВ 3
{6}
40 км слаб. дождь 10/8 300 м
[Sc Ac As]
+13.6 +10.7 83 +12 +13 1004.0 994.9 0.2
14 21.06 В 3
{5}
25 км слаб. дождь 10/8 100 м
[Sc Ac As]
+12.7 +11.1 90 +11 +12 1004.1 995.0 0.9
15 21.06 ЮВ 2
{5}
26 км слаб. дождь 10/9 100 м
[Sc Ac As]
+12.6 +10.8 89 +12 +12 1004.2 995.1 0.4
16 21.06 З 2
{4}
40 км слаб. дождь 10/9 100 м
[Sc Ac As]
+12.5 +11.5 94 +11 +12 1004.3 995.2
17 21.06 СВ 1
{3}
70 км в посл. час дождь 10/9 100 м
[Sc Ac As]
+12.5 +10.6 88 +12 +13 1004.3 995.2
18 21.06 В 1
{6}
70 км осадки на расстоянии 10/9 100 м
[Sc Ac As]
+12.2 +10.8 91 +12 +12 1004.4 995.2 +12.2 +15.8 1
19 21.06 В 2
{2}
70 км 10/9 50 м
[Sc Ac As]
+12.1 +10.9 92 +11 +11 1004.4 995.2
20 21.06 ЮВ 1
{2}
70 км 10/9 50 м
[Sc Ac As]
+12.0 +11.2 95 +12 +12 1004.6 995.4
21 21.06 В 2
{2}
70 км осадки на расстоянии 10/9 50 м
[Sc Ac As]
+11.8 +10.8 94 +11 +11 1004.6 995.4
22 21.06 В 2
{2}
н/о н/о +11.5 +10.5 94 +10 +10 1004.6 995.5
23 21.06 штиль 0
{2}
н/о н/о +11.3 +10.4 94 +11 +11 1004.8 995.6
00 22.06 Ю 1
{2}
н/о н/о +11.2 +10.5 95 +11 +11 1004.8 995.6
01 22.06 СЗ 1
{3}
н/о н/о +11.0 +10.4 96 +11 +11 1005.0 995.8
02 22.06
{3}
н/о н/о +10.8 +10.4 97 1005.3 996.1 1
03 22.06 ЮЗ 2
{2}
н/о н/о +10.6 +10.1 97 +9 +9 1005.5 996.3 0.7
04 22.06 ЮЗ 1
{2}
н/о н/о +10.5 +10.1 97 +10 +10 1005.3 996.1 2
05 22.06 ЮЗ 1
{2}
20 км туман на расстоянии {дождь} 10/9 <50 м
[Frnb Ac As]
+10.4 +9.9 97 +10 +10 1005.3 996.1 0.4
06 22.06 З 5
{6}
22 км в посл. час дождь 10/9 50 м
[Frnb Ac As]
+11.0 +8.9 87 +8 +8 1005.2 996.0 +10.3 +12.3 5
07 22.06 З 7
{11}
26 км осадки на расстоянии 10/9 200 м
[Frnb Ac As]
+10.4 +7.2 81 +7 +7 1005.3 996.1
08 22.06 З 6
{9}
21 км слаб. дождь 10/9 300 м
[Frnb Ac As]
+10.0 +8.1 88 +6 +7 1005.7 996.5 0.4
09 22.06 З 6
{8}
20 км в посл. час дождь 10/9 100 м
[Frnb Ac As]
+9.8 +8.1 89 +6 +6 1006.0 996.7
10 22.06 З 4
{8}
8000 м дождь 10/9 100 м
[Frnb Ac As]
+9.7 +8.5 92 +7 +7 1006.4 997.1 0.2
11 22.06 З 5
{6}
14 км дождь 10/9 100 м
[Frnb Ac As]
+9.7 +8.3 91 +6 +7 1006.5 997.2 2
12 22.06 З 5
{11}
24 км слаб. дождь 10/9 200 м
[Frnb Ac As]
+10.0 +8.4 90 +7 +7 1006.7 997.5 1
13 22.06 З 5
{7}
21 км слаб. дождь 10/9 200 м
[Frnb Ac As]
+9.7 +8.0 89 +6 +7 1007.1 997.9 2
14 22.06 З 3
{7}
15 км дождь 10/9 100 м
[Frnb Ac As]
+9.1 +7.5 90 +7 +7 1007.7 998.4 1
15 22.06 З 3
{5}
н/о н/о +8.7 +7.4 92 +6 +6 1008.2 998.9 2
16 22.06 ЮЗ 3
{5}
н/о н/о +8.3 +7.1 92 +6 +6 1008.7 999.3 2
17 22.06 ЮЗ 2
{4}
н/о н/о +8.2 +7.2 93 +6 +6 1009.0 999.6 2
18 22.06 ЮЗ 2
{7}
н/о н/о +8.7 +7.1 90 +7 +7 1009.0 999.7 +8.2 +11.0 13
19 22.06 З 2
{3}
н/о н/о +8.5 +7.4 93 +7 +7 1009.3 1000.0 0.3
20 22.06 ЮЗ 1
{3}
н/о н/о +8.1 +7.4 95 +7 +7 1009.6 1000.2 0.2
21 22.06 ЮЗ 2
{2}
н/о н/о +7.9 +7.2 95 +6 +6 1009.9 1000.5 0.2
22 22.06 Ю 2
{2}
н/о н/о +7.6 +7.1 97 +5 +5 1010.3 1000.9 0.2
23 22.06 ЮЗ 2
{3}
н/о н/о +7.6 +6.8 95 +5 +5 1010.7 1001.3 0.1
00 23.06 Ю 1
{3}
н/о н/о +7.5 +6.9 96 +6 +6 1010.9 1001.5 0.2
01 23.06 ЮЗ 1
{2}
н/о н/о +7.6 +6.9 95 +7 +7 1011.3 1001.9
02 23.06 З 1
{2}
н/о н/о +7.6 +6.9 95 +7 +7 1011.8 1002.4 0.2
03 23.06 ЮЗ 2
{3}
н/о н/о +7.7 +7.1 96 +5 +5 1012.1 1002.7 1
04 23.06 Ю 1
{2}
н/о н/о +8.4 +7.5 94 +8 +8 1012.4 1003.0 0.5
05 23.06 Ю 1
{2}
н/о н/о +8.7 +7.6 93 +8 +8 1012.8 1003.5 0.6
06 23.06 СЗ 1
{3}
н/о н/о +9.1 +7.8 92 +8 +8 1013.3 1004.0 +7.4 +9.2 5
07 23.06 штиль 0
{2}
н/о н/о +10.0 +8.4 90 +9 +9 1014.0 1004.6 0.5
08 23.06 ЮЗ 2
{2}
21 км слаб. дождь 10/9 <50 м
[Frnb Ac As]
+10.0 +7.7 86 +8 +9 1014.5 1005.2 0.4
09 23.06 Ю 2
{3}
40 км слаб. дождь 10/9 200 м
[Frnb Ac As]
+10.6 +7.9 83 +9 +10 1015.0 1005.7 0.1
10 23.06 Ю 2
{3}
21 км слаб. дождь 10/9 100 м
[Frnb Ac As]
+10.8 +8.1 83 +9 +10 1015.7 1006.4 0.2
11 23.06 Ю 1
{2}
21 км слаб. дождь 10/9 300 м
[Frnb Ac As]
+11.2 +7.5 78 +11 +11 1016.2 1006.9 0.3
12 23.06 ЮВ 1
{3}
21 км слаб. дождь 10/9 300 м
[Frnb Ac As]
+11.0 +7.2 77 +11 +11 1016.7 1007.4 2
13 23.06 В 1
{2}
45 км слаб. дождь 10/9 300 м
[Frnb Ac As]
+11.5 +8.4 81 +11 +12 1017.1 1007.8 0.9
14 23.06 С 2
{4}
50 км слаб. дождь 9/8 300 м
[Frnb Ac As]
+11.3 +8.6 83 +10 +11 1017.5 1008.2 0.6
15 23.06 Ю 2
{4}
65 км слаб. дождь 9/8 600 м
[Frnb Ac As]
+11.9 +8.2 78 +11 +12 1017.8 1008.5 0.1
16 23.06 Ю 3
{5}
>70 км в посл. час дождь 9/8 600 м
[Sc Ac As]
+11.5 +8.4 81 +10 +10 1018.0 1008.7
17 23.06 Ю 2
{4}
>70 км 9/8 300 м
[Sc Ac As]
+11.7 +7.8 77 +11 +11 1018.2 1008.9
18 23.06 ЮЗ 1
{6}
>70 км {дождь} 9/8 600 м
[Sc Ac As]
+11.6 +8.1 79 +11 +12 1018.7 1009.4 +9.1 +12.3 3
19 23.06 З 1
{2}
>70 км осадки на расстоянии 9/6 600 м
[Cu Sc Ac As Cs]
+11.4 +7.8 79 +11 +11 1019.1 1009.8
20 23.06 С 2
{2}
>70 км 8/6 600 м
[Cu Sc Ac trans Cs]
+10.3 +8.6 89 +9 +9 1019.6 1010.2
21 23.06 ЮЗ 1
{2}
>70 км 8/6 600 м
[Cu Sc Ac trans Cs]
+9.1 +8.2 94 +8 +8 1020.2 1010.8
22 23.06 ЮЗ 1
{2}
н/о н/о +9.4 +8.2 92 +9 +9 1020.8 1011.4
23 23.06 ЮЗ 1
{2}
н/о н/о +9.1 +7.9 92 +8 +8 1021.2 1011.8
00 24.06 ЮЗ 1
{2}
н/о н/о +8.6 +6.3 85 +8 +8 1021.6 1012.1
01 24.06 ЮЗ 1
{2}
н/о н/о +7.6 +5.8 88 +7 +7 1021.8 1012.4
02 24.06 В 1
{2}
н/о н/о +8.4 +6.0 85 +8 +8 1022.1 1012.7
03 24.06 Ю 1
{3}
н/о н/о +10.0 +5.6 74 +10 +10 1022.4 1013.0
04 24.06 Ю 2
{4}
>70 км 8/6 1000 м
[Cu Sc Ac As]
+11.1 +5.7 69 +10 +11 1022.5 1013.1
05 24.06 Ю 2
{4}
>70 км 9/6 1000 м
[Cu Sc Ac As]
+11.0 +5.1 67 +10 +11 1022.6 1013.2
06 24.06 Ю 2
{4}
>70 км осадки на расстоянии 9/6 1000 м
[Cu Sc Ac As]
+11.0 +5.4 68 +10 +11 1022.8 1013.5 +7.4 +11.6
07 24.06 Ю 2
{5}
>70 км осадки на расстоянии {ливн. осадки} 9/6 600 м
[Cu Sc Ac As]
+12.3 +5.9 65 +12 +13 1023.0 1013.6
08 24.06 ЮЗ 4
{8}
70 км слаб. ливневой дождь 9/6 600 м
[Cu Sc Ac As]
+11.5 +6.4 71 +9 +10 1023.3 1014.0
09 24.06 Ю 5
{9}
>70 км в посл. час ливневой дождь 6/5 600 м
[Cu Sc Ac cuf]
+13.4 +6.3 62 +12 +14 1023.4 1014.1
10 24.06 ЮЗ 4
{10}
65 км в посл. час ливневой дождь 8/8 600 м
[Cu Sc Ac cuf]
+13.0 +5.8 62 +11 +13 1024.1 1014.8 0.2
11 24.06 Ю 5
{9}
70 км осадки на расстоянии 8/6 600 м
[Cu Sc Ac cuf]
+12.9 +4.0 55 +11 +11 1024.4 1015.1
12 24.06 Ю 4
{10}
70 км осадки на расстоянии {ливн. осадки} 8/6 600 м
[Cu Sc Ac cuf]
+13.3 +4.1 54 +12 +14 1024.8 1015.4 0.2
13 24.06 ЮЗ 5
{10}
70 км осадки на расстоянии 8/6 600 м
[Cu Sc Ac cuf]
+12.4 +4.1 57 +10 +12 1025.0 1015.7
14 24.06 Ю 5
{9}
70 км осадки на расстоянии 8/6 600 м
[Cu Sc Ac cuf]
+12.2 +5.5 64 +10 +11 1025.2 1015.8
15 24.06 З 5
{7}
50 км слаб. ливневой дождь 9/8 600 м
[Cu Sc Ac cuf]
+10.7 +5.4 70 +8 +8 1025.5 1016.1
16 24.06 З 3
{8}
60 км в посл. час ливневой дождь 9/8 600 м
[Cu Sc Ac cuf]
+11.0 +5.1 67 +9 +10 1025.6 1016.2
17 24.06 Ю 3
{5}
65 км в посл. час ливневой дождь 9/8 600 м
[Cu Sc Ac cuf]
+11.2 +5.3 67 +10 +10 1025.6 1016.2
18 24.06 ЮЗ 3
{10}
65 км {ливн. осадки} 9/8 600 м
[Cu Sc Ac cuf]
+10.2 +4.4 67 +8 +8 1025.6 1016.1 +10.2 +14.3 0.2
19 24.06 ЮЗ 2
{7}
65 км осадки на расстоянии 9/9 300 м
[Cu Sc]
+9.6 +4.7 71 +8 +8 1026.0 1016.5
20 24.06 З 1
{7}
65 км осадки на расстоянии 9/9 300 м
[Cu Sc]
+8.0 +5.6 85 +7 +7 1026.3 1016.9
21 24.06 З 2
{4}
65 км осадки на расстоянии 9/9 600 м
[Cu Sc]
+8.6 +5.2 79 +7 +7 1026.5 1017.1
22 24.06 З 3
{4}
н/о н/о +8.4 +5.4 81 +6 +6 1026.6 1017.1
23 24.06 ЮЗ 1
{4}
н/о н/о +7.9 +5.1 82 +7 +7 1026.4 1016.9
00 25.06 ЮЗ 1
{7}
н/о н/о +7.9 +4.9 81 +7 +7 1026.3 1016.8
01 25.06 ЮЗ 2
{4}
н/о н/о +7.8 +4.9 82 +6 +6 1026.0 1016.5
02 25.06 Ю 2
{4}
н/о н/о +8.3 +4.6 77 +7 +7 1025.6 1016.1
03 25.06 ЮЗ 2
{5}
н/о н/о +9.0 +4.3 72 +7 +7 1025.2 1015.7
04 25.06 ЮЗ 3
{6}
65 км осадки на расстоянии 9/9 100 м
[Cu Sc Ac As]
+9.0 +4.4 73 +7 +7 1025.0 1015.5
05 25.06 Ю 3
{7}
65 км осадки на расстоянии 9/8 200 м
[Cu Sc Ac As]
+8.8 +4.8 76 +6 +7 1024.8 1015.3
06 25.06 Ю 3
{8}
70 км осадки на расстоянии 9/8 600 м
[Cu Sc Ac As]
+9.1 +4.8 74 +7 +7 1024.7 1015.2 +7.7 +10.3
07 25.06 Ю 4
{8}
70 км осадки на расстоянии 9/8 600 м
[Cu Sc Ac As]
+9.9 +4.8 71 +7 +8 1024.5 1015.1
08 25.06 ЮЗ 5
{8}
70 км в посл. час ливневой дождь 9/8 600 м
[Cu Sc Ac cuf]
+11.0 +5.0 66 +8 +9 1024.4 1015.0
09 25.06 ЮЗ 4
{8}
70 км в посл. час ливневой дождь 9/6 600 м
[Cu Sc Ac cuf]
+11.8 +5.1 63 +10 +11 1024.2 1014.8
10 25.06 З 3
{10}
70 км осадки на расстоянии 9/6 600 м
[Cu Sc Ac As]
+12.7 +4.6 58 +12 +13 1024.3 1015.0
11 25.06 З 4
{7}
70 км осадки на расстоянии 9/6 600 м
[Cu Sc Ac As]
+13.0 +3.5 52 +12 +13 1024.0 1014.7

 

Местоположение метеостанции Бардуфосс (Норвегия): широта 69.06 долгота 18.54 высота над уровнем моря 76 м.

В архиве по умолчанию представлена погода в Бардуфоссе за последнюю неделю. Архивные данные за месяц целиком и за предыдущие месяцы, начиная с января 2011 года, Вы можете получить, выбрав интересующий диапазон дат из раскрывающегося списка и нажав кнопку "Ввод!".


*Определитесь, кто Вы:
робот инопланетянин человек

Внимание! Время в таблицах - всемирное. Для получения местного времени необходимо прибавить поправку, которая равна 1 ч.

Смотрите также архив погоды в соседних городах и на ближайших метеорологических станциях:

Погода в Дивидалене (Норвегия) (56 км)
Погода на Маяке Hekkingen (Норвегия) (66 км)
Погода в Тромсё (Холт) (Норвегия) (67 км)
Погода в Тромсё (Норвегия) (67 км)
Погода в Тромсё аэропорту (Норвегия) (70 км)
Погода в Каттерьяк аэропорту (Швеция) (73 км)
Погода в Каттерьяке (Швеция) (73 км)
Погода в Шиботне (Норвегия) (77 км)
Погода в Страумснесе (Норвегия) (79 км)
Погода в Абиску (Швеция) (80 км)

Пояснения к столбцам:

Ветер - указаны скорость ветра в м/с - средняя за 10 мин, порывы в срок и между сроками (в фигурных скобках) и направление, откуда дует ветер: С - северный, СВ - северо-восточный, В - восточный, ЮВ - юго-восточный, Ю - южный, ЮЗ - юго-западный, З - западный, СЗ - северо-западный.
Видимость - горизонтальная дальность видимости в метрах или километрах. При видимости от 1 до 10 км при отсутствии осадков обычно наблюдается дымка, при ухудшении видимости до 1 км и менее - туман. В сухую погоду видимость может ухудшаться дымом, пылью или мглою.
Явления - указаны атмосферные явления, наблюдавшиеся в срок или в последний час перед сроком; фигурными скобками обозначены явления, наблюдавшиеся между сроками (за 1-3 часа до срока); квадратными скобками обозначены град или гололедные отложения с указанием их диаметра в мм.
Облачность - указаны через наклонную черту общая и нижняя облачность в баллах и высота нижней границы облаков в метрах; квадратными скобками обозначены формы облаков: Ci - перистые, Cs - перисто-слоистые, Cc - перисто-кучевые, Ac - высококучевые, As - высокослоистые, Sc - слоисто-кучевые, Ns - слоисто-дождевые, Cu - кучевые, Cb - кучево-дождевые. Подробнее классификацию облаков см. в Атласе облаков (PDF).
T - Температура воздуха - температура, измеренная на высоте 2 м над землей.
Td - Температура точки росы - температура, при понижении до которой содержащийся в воздухе водяной пар достигнет насыщения.
f - Относительная влажность воздуха - влажноcть воздуха, измеренная на высоте 2 м над землей.
Te - Эффективная температура - температура, которую ощущает одетый по сезону человек в тени. Характеристика душности погоды. При расчете учитывается влияние влажности воздуха и скорости ветра на теплоощущения человека.
Tes - Эффективная температура на солнце - температура, которую ощущает человек, с поправкой на солнечный нагрев. Характеристика знойности погоды. Зависит от высоты солнца над горизонтом, облачности и скорости ветра. Ночью, в пасмурную погоду, а также при ветре 12 м/с и более поправка равна нулю.
P - Атмосферное давление - приведенное к уровню моря атмосферное давление.
Po - Атмосферное давление - измеренное на уровне метеостанции атмосферное давление.
Tmin - Минимальная температура - минимум температуры воздуха на высоте 2 м над землей.
Tmax - Максимальная температура - максимум температуры воздуха на высоте 2 м над землей.
R - Количество осадков - Количество выпавших осадков за период времени, мм. При наведении курсора мыши на число - период времени, за который выпало указанное количество осадков.
R24 - Количество осадков - Количество выпавших осадков за 24 часа, мм.
S - Снежный покров - Высота снежного покрова, см. При наведении курсора мыши на число - состояние снежного покрова и степень покрытия местности в баллах.